Погода в Прогрессе

Россия / Новгородская область     58°24′03″N   33°56′13″E
темп.,
°C
ветер,
м/с
пор.,
м/с
влажн.,
%
обл.,
%
осадки,
мм/ч
давл.,
гПа
погр.,
м
10 апреля, сб
сб1000:00+3ююз61468100 0.0 1016947
03:00+4ююз61370100 0.0 1016985
06:00+3ююз61373100 0.0 1016915
09:00+5ю61467100 0.0 10161168
12:00+8ююз71357100 0.0 10161564
15:00+10ююз71351100 0.0 10151956
18:00+9ююз7145598 0.1 10141662
21:00+7зюз61273100 0.4 10161172
11 апреля, вс
вс1100:00+3зюз3885100 2.4 1020715
03:00+2юз279196 2.4 1022261
06:000зюз229514 0.0 102434
09:00+4юз24684 0.0 1026482
12:00+8юз23415 0.0 10271294
15:00+10зюз243678 0.0 10281652
18:00+9ю125158 0.0 1028554
21:00+5юв26889 0.1 1030126
12 апреля, пн
пн1200:00+5юв278983 0.0 1030184
03:00+5вюв2692100 0.0 1030188
06:00+4юв36955 0.0 1030113
09:00+10ю377123 0.0 1029298
12:00+15ю57515 0.0 10291050
15:00+16ююв46430 0.0 10271492
18:00+15ююв47481 0.0 1025808
21:00+10юв41165100 0.0 1025380
13 апреля, вт
вт1300:00+10ююв41069100 0.0 1024581
03:00+8ю3994100 2.1 1023509
06:00+7ююв2698100 1.6 1022237
09:00+7ююв2598100 2.8 1021237
12:00+10ю358797 0.6 1021418
15:00+10ю3791100 0.6 1021392
18:00+9ююв2695100 0.1 1020196
21:00+9ююв2698100 0.4 1020159
14 апреля, ср
ср1400:00+9юв2496100 0.3 1019112
03:00+8юв2496100 0.6 101887
06:00+8ююв2398100 0.1 101771
09:00+8ю2499100 0.9 1016144
12:00+9ю2697100 0.3 1016307
15:00+13ююз2583100 0.6 1016667
18:00+11ююв239377 0.1 1015115
21:00+9всв0095100 0.1 101610